Regional Weather Roundup
Issued by NWS Newport/Morehead, NC

Current Version | Previous Version | Text Only | Print | Product List | Glossary On
Versions: 1 2 3 4 5 6 7 8 9 10 11 12 13 14 15 16 17 18 19 20 21 22 23 24 25 26 27 28 29 30 31 32 33 34 35 36 37 38 39 40 41 42 43 44 45 46 47 48 49 50
000
ASUS42 KMHX 030724
RWRMHX
WEATHER ROUNDUP FOR EASTERN NORTH CAROLINA
NATIONAL WEATHER SERVICE NEWPORT/MOREHEAD CITY NC
300 AM EDT SUN MAY 03 2015

NOTE: "FAIR" INDICATES FEW OR NO CLOUDS BELOW 12,000 FEET
WITH NO SIGNIFICANT WEATHER AND/OR OBSTRUCTIONS TO VISIBILITY

NCZ015>017-031-032-045>047-102-103-030800-
NORTH COAST

CITY           SKY/WX    TMP DP  RH WIND       PRES   REMARKS
EDENTON        CLEAR     56  52  87 SW6       30.09S
ELIZABETH CITY CLEAR     49  47  93 SW5       30.08F
KITTY HAWK     SUNNY     52  50  94 SW5       30.07S
MANTEO         CLEAR     54  48  81 W7        30.09S

$$

NCZ045>047-081-094-103-104-030800-
CENTRAL COAST

CITY           SKY/WX    TMP DP  RH WIND       PRES   REMARKS
FRISCO         CLEAR     49  49 100 W6        30.09S
SWANQUARTER      N/A     57 N/A N/A SW5       30.06S

$$

NCZ095-097-098-100-101-030800-
SOUTHERN COAST

CITY           SKY/WX    TMP DP  RH WIND       PRES   REMARKS
BEAUFORT       CLEAR     49  49 100 CALM      30.11F
CEDAR ISLAND     N/A     54 N/A N/A SW3       30.12F
JACKSONVILLE   CLEAR     52  50  93 CALM      30.10F
PINEY ISLAND   SUNNY    N/A N/A N/A SW7       30.10S
WILMINGTON     CLEAR     53  51  93 CALM      30.11S FOG


$$

NCZ011>013-027>030-043-044-078>080-089-090>093-098-030800-
COASTAL PLAIN

CITY           SKY/WX    TMP DP  RH WIND       PRES   REMARKS
AHOSKIE        CLEAR     48  47  97 CALM      30.09S
CLINTON        CLEAR     51  51 100 CALM      30.11F
ELIZABETHTOWN  CLEAR     54  52  94 CALM      30.11S
GOLDSBORO      CLEAR     51  50  97 CALM      30.08F
GREENVILLE     CLEAR     54  52  94 CALM      30.11S
HAVELOCK       CLEAR     49  46  90 CALM      30.11F
KENANSVILLE    CLEAR     47  47  99 CALM      30.11F
KINSTON        CLEAR     51  50  98 SW5       30.11F
NEW BERN       CLEAR     48  45  89 CALM      30.12S FOG
RICHLANDS      MOCLDY    46  43  87 CALM      30.12S
ROCKY MOUNT    CLEAR     49  48  97 CALM      30.10S
WASHINGTON     CLEAR     52  50  92 CALM      30.11S
WHITEVILLE     CLEAR     53  51  95 CALM      30.11S

$$

AMZ130-135-150-152-154-156-158-170-250-252-270-ANZ085-086-088-633-658-670-030800-
MARINE OBSERVATIONS

STATION/POSITION TIME  TEMP    WIND        PRES    WAVE   SWELL
                       AIR SEA DIR/SP/G            HT/PER HT/PER
                 (UTC) (F)     (DEG/KT/KT) (MB)    (FT/S) (FT/S)
CHESAPEAKE LIGHT 0700   54     230/ 12/ 12 1018.6
64 E VA BEACH    0650   53 60  290/  6/  8 1018.0    7/11   7/11
DUCK             0700   55 53  230/  6/  7 1017.6
2 E DUCK         0611      55                N/A     5/11   3/11
OREGON INLET     0700   54 57  250/  5/  7 1018.7
13E OREGON INLT  0700      50                N/A     7/11   5/11
HATTERAS CG      0700   58 61  270/  7/  8 1018.5
DIAMOND BUOY     0650   54     310/  6/  6 1019.0    5/11   5/11
CAPE LOOKOUT     0700   59     230/  3/  3 1019.1
BEAUFORT LAB     0700   58 62  260/  2/  3 1018.5
27 SE WRIGHTSVLE 0700   64 71  320/  4/  6   N/A
5 SE WRIGHTSVLE  0608   65 66  290/  6/  8 1019.6
225 S CAPE HAT   0650   65 69  350/ 16/ 19 1018.3    9/10   7/10
41 SE CHARLESTON 0650   70 71  230/  6/  8 1019.2    2/12   2/12

$$


USA.gov is the U.S. government's official web portal to all federal, state and local government web resources and services.